STARLINK-36967

Last updated on Mon Mar 30 2026 00:02:05 GMT+0000 (Coordinated Universal Time)

1 68013U 26039AD 26086.90713370 .00121433 00000+0 20399-2 0 9998 2 68013 43.0003 306.5652 0001703 259.9619 100.1049 15.50631528 4486
UTC large
Height (km)
Speed (km/s)
/
Latitude / Longitude
Inclination (degrees)
Orbital Period (minutes)
Azimuth
Elevation
Range (km)
Doppler Factor

Next 0 passes for location: London (51.5072 / 0.1276)

Sorry there are no passes over London.